Airfield :
LOGIN :

Register | Disclaimer

   EN    FR    IT 

 










Legend :    VFR   Marginal VFR   IFR   Intensive IFR   Very Intensive IFR
Visi :
Ceiling :
>= 8 km
>= 3000ft
5 to 8 km
1000 to 3000 ft
1500m to 5 km
500 to 1000 ft
800 to 1500m
200 to 500 ft
< 800m
< 200 ft
Symbols :   Thunderstorms  Fog  Heavy snow  Heavy precipitations  Wind > 20 kt
SIGMETs :     Misc.  Thunderstorms  Icing  Turbulence  Mountain Waves  Volcanic Ashes







- Airport Elevation : 1487 ft
- IATA code : MUC


EDDM - München Franz Josef Strauss

CURRENT METAR :
  • 232350Z 00000KT CAVOK 04/00 Q1016 NOSIG

EXPIRED METARs :
  • 232320Z 20001KT CAVOK 04/01 Q1016 NOSIG
  • 232250Z 25003KT CAVOK 04/00 Q1016 NOSIG
  • 232220Z VRB01KT CAVOK 05/01 Q1016 NOSIG
  • 232150Z 22003KT CAVOK 06/01 Q1016 NOSIG
  • 232120Z 22003KT CAVOK 07/01 Q1016 NOSIG

TAF TAF EDDM
Valid from the 24 at 00:00 until the 25 at 06:00 UTC


232300Z 2400/2506 20005KT CAVOK
TEMPO 2404/2410 VRB03KT
TEMPO 2418/2420 26010KT
No reported NOTAMs for that airfield.



MET'MAP, your aeronautical weather chart ! - Copyright ORBIFLY December 2007 - Disclaimer

ORBIFLY MET'MAP TEAM :

Programming & Development : Alexandra Zaïnal
Concept & Development : Baudouin d'Aumeries
Co-Development & Prog : Marc-Olivier Méhu
Technical & hardware support : Manuel Goepfert

Contact : metmap@orbifly.com




SOURCES & CREDITS :

   NOAA